Location: Biharia
(46.4333°N, 22.8000°E)
Time: 03:18:21
(UTC+00:00)

Cosmos 494 Rocket - Pass Details

Date: 31 May 2022
Orbit: 742 x 770 km, 74.1° (Epoch: 05 July)

Event Time Altitude Azimuth Distance (km) Brightness Sun altitude
Rises 21:06:52 0° 342° (NNW) 3,193 8.9 -19.2°
Reaches altitude 10° 21:09:20 10° 349° (N) 2,265 7.7 -19.4°
Maximum altitude 21:14:15 45° 62° (ENE) 1,007 4.6 -19.6°
Enters shadow 21:16:27 29° 116° (ESE) 1,354 4.9 -19.7°
